This is the latest recevied weather packets stored in our database for station/object F4IEI-10. If no packets are shown the sender has not sent any weather packets the latest 10 day(s).
| Time | Temp. | Humidity | Pressure | Rain* | Wind** | Luminosity | Snow |
|---|---|---|---|---|---|---|---|
| 1777727616 | 23.89° C | 71% | 1015.2 hPa | - | - | - | - |
| 1777726716 | 22.78° C | 72% | 1015.6 hPa | - | - | - | - |
| 1777725811 | 23.33° C | 71% | 1015.8 hPa | - | - | - | - |
| 1777724911 | 23.89° C | 73% | 1016.1 hPa | - | - | - | - |
| 1777724011 | 24.44° C | 76% | 1016.3 hPa | - | - | - | - |
| 1777723111 | 23.89° C | 73% | 1016.6 hPa | - | - | - | - |
| 1777722211 | 23.89° C | 74% | 1016.8 hPa | - | - | - | - |
| 1777721311 | 23.33° C | 76% | 1017 hPa | - | - | - | - |
| 1777720411 | 23.33° C | 78% | 1017.1 hPa | - | - | - | - |
| 1777719511 | 22.78° C | 77% | 1017.4 hPa | - | - | - | - |
| 1777718611 | 22.78° C | 80% | 1017.6 hPa | - | - | - | - |
| 1777717715 | 22.78° C | 79% | 1017.9 hPa | - | - | - | - |
| 1777716814 | 22.78° C | 80% | 1018 hPa | - | - | - | - |
| 1777715914 | 22.78° C | 88% | 1018.2 hPa | - | - | - | - |
| 1777715014 | 23.33° C | 91% | 1018.4 hPa | - | - | - | - |
| 1777714114 | 22.22° C | 93% | 1018.5 hPa | - | - | - | - |
| 1777713214 | 23.33° C | 95% | 1018.6 hPa | - | - | - | - |
| 1777712314 | 20° C | 100% | 1018.9 hPa | - | - | - | - |
| 1777711414 | 18.33° C | 100% | 1019.2 hPa | - | - | - | - |
| 1777710514 | 18.89° C | 100% | 1019.2 hPa | - | - | - | - |
| 1777709614 | 18.33° C | 100% | 1019 hPa | - | - | - | - |
| 1777708714 | 16.11° C | 100% | 1019.2 hPa | - | - | - | - |
| 1777707814 | 16.11° C | 100% | 1019.3 hPa | - | - | - | - |
| 1777706921 | 15° C | 100% | 1019.3 hPa | - | - | - | - |
| 1777706014 | 15° C | 100% | 1019.4 hPa | - | - | - | - |
* Rain since midnight (hover to see other rain measurements)
** Current wind speed in m/s (hover to see current wind gust speed)